Hourly Data Report for March 20, 2012

All times are specified in Local Standard Time (LST). Add 1 hour to adjust for Daylight Saving Time where and when it is observed.

MIRAMICHI RCS
NEW BRUNSWICK

47°00'34.000" N
65°27'54.000" W
33.00 m
8100989
71744
ACQ

Download Data

Hourly Data (March 2012)
Hourly Data Report for March 20, 2012
TIME Temp Definition
°C
Dew Point Definition
°C
Rel Hum Definition
%
Wind Dir Definition
10's deg

Wind Spd Definition
km/h
Visibility Definition
km
Stn Press Definition
kPa
Hmdx Definition


Wind Chill Definition


Weather Definition


00:00 0.1 -2.8 81 6 4   102.20     LegendNANA
01:00 0.3 -3.1 78   0   102.14     LegendNANA
02:00 2.5 -3.5 65 23 11   102.01     LegendNANA
03:00 3.3 -3.1 63 23 15   101.87     LegendNANA
04:00 4.4 -2.9 59 25 13   101.77     LegendNANA
05:00 3.9 -2.4 63 23 17   101.68     LegendNANA
06:00 4.5 -1.9 63 23 22   101.62     LegendNANA
07:00 4.8 -1.4 64 23 20   101.61     LegendNANA
08:00 5.9 -0.3 64 22 26   101.55     LegendNANA
09:00 8.2 0.9 60 24 20   101.54     LegendNANA
10:00 11.3 2.5 55 24 19   101.49     LegendNANA
11:00 14.8 4.3 49 24 20   101.39     LegendNANA
12:00 17.9 6.0 46 23 26   101.28     LegendNANA
13:00 19.9 7.0 43 23 24   101.18     LegendNANA
14:00 21.6 7.3 40 24 20   101.11     LegendNANA
15:00
16:00 23.5 6.0 32 25 20   101.07     LegendNANA
17:00 23.0 8.0 38 26 19   101.11     LegendNANA
18:00 21.0 7.5 42 26 11   101.18     LegendNANA
19:00 15.9 7.1 56 23 11   101.26     LegendNANA
20:00 14.6 7.1 61 23 11   101.32     LegendNANA
21:00 14.1 7.4 64 24 9   101.36     LegendNANA
22:00 13.8 7.2 64 26 7   101.43     LegendNANA
23:00 12.6 7.2 70 26 9   101.45     LegendNANA

Notes on Data Quality.

Legend

  • E = Estimated
  • M = Missing
  • NA = Not Available
Date modified: